• In Belarus
  • List of Countries
  • For 7 days
  • Water Temperature
  • Satellite Maps
  • Weather Map
  • Weather Widgets
  • user-avatar
    Login

    Hourly Weather Juticalpa

    Today, 23 October, Monday

    Time Temperature Precipitation Wind Pressure Humidity
    00:00 +22°C° 0.4 mm 0 mps 727 mmHg 98%
    01:00 +22°C° 0.1 mm 0 mps 726 mmHg 98%
    02:00 +22°C° 0.1 mm 0 mps 726 mmHg 98%
    03:00 +22°C° 0.1 mm 0 mps 726 mmHg 98%
    04:00 +22°C° 0 mm 0 mps 726 mmHg 98%
    05:00 +22°C° 0 mm 0 mps 726 mmHg 98%
    06:00 +22°C° 0 mm 0 mps 726 mmHg 98%
    07:00 +24°C° 0.1 mm 0 mps 727 mmHg 91%
    08:00 +26°C° 0.1 mm 0 mps 727 mmHg 83%
    09:00 +28°C° 0.1 mm 0 mps 727 mmHg 76%
    10:00 +30°C° 0.5 mm 1 mps 727 mmHg 75%
    11:00 +31°C° 0.5 mm 1 mps 726 mmHg 74%
    12:00 +31°C° 0.5 mm 1 mps 726 mmHg 74%
    13:00 +30°C° 1.8 mm 1 mps 725 mmHg 80%
    14:00 +29°C° 1.8 mm 1 mps 725 mmHg 86%
    15:00 +28°C° 1.8 mm 1 mps 724 mmHg 92%
    16:00 +27°C° 1.8 mm 1 mps 725 mmHg 94%
    17:00 +26°C° 1.8 mm 1 mps 725 mmHg 95%
    18:00 +25°C° 1.8 mm 1 mps 725 mmHg 97%
    19:00 +25°C° 1.2 mm 1 mps 725 mmHg 97%
    20:00 +23°C° 1.2 mm 0 mps 726 mmHg 97%
    21:00 +23°C° 1.2 mm 0 mps 726 mmHg 98%
    22:00 +23°C° 0.6 mm 0 mps 726 mmHg 98%
    23:00 +23°C° 0.6 mm 0 mps 726 mmHg 98%

    Tomorrow, 24 October, Tuesday

    Time Temperature Precipitation Wind Pressure Humidity
    00:00 +22°C° 0.6 mm 0 mps 726 mmHg 98%
    01:00 +22°C° 0.2 mm 0 mps 725 mmHg 98%
    02:00 +22°C° 0.2 mm 0 mps 725 mmHg 98%
    03:00 +22°C° 0.2 mm 0 mps 725 mmHg 98%
    04:00 +22°C° 0.2 mm 0 mps 725 mmHg 98%
    05:00 +22°C° 0.2 mm 0 mps 725 mmHg 98%
    06:00 +22°C° 0.2 mm 0 mps 725 mmHg 98%
    07:00 +24°C° 0.2 mm 0 mps 726 mmHg 92%
    08:00 +25°C° 0.2 mm 0 mps 726 mmHg 85%
    09:00 +27°C° 0.2 mm 0 mps 727 mmHg 79%
    10:00 +29°C° 1.1 mm 1 mps 726 mmHg 82%
    11:00 +29°C° 1.1 mm 1 mps 726 mmHg 85%
    12:00 +29°C° 1.1 mm 1 mps 725 mmHg 88%
    13:00 +28°C° 1.8 mm 1 mps 725 mmHg 91%
    14:00 +27°C° 1.8 mm 1 mps 724 mmHg 93%
    15:00 +26°C° 1.8 mm 1 mps 724 mmHg 96%
    16:00 +26°C° 1.1 mm 1 mps 724 mmHg 96%
    17:00 +25°C° 1.1 mm 1 mps 724 mmHg 96%
    18:00 +25°C° 1.1 mm 1 mps 725 mmHg 97%
    19:00 +23°C° 1.1 mm 0 mps 725 mmHg 97%
    20:00 +22°C° 1.1 mm 0 mps 726 mmHg 97%
    21:00 +22°C° 1.1 mm 0 mps 727 mmHg 97%
    22:00 +22°C° 1 mm 0 mps 727 mmHg 98%
    23:00 +22°C° 1 mm 0 mps 726 mmHg 98%

    Day after tomorrow, 25 October, Wednesday

    Time Temperature Precipitation Wind Pressure Humidity
    00:00 +22°C° 1 mm 0 mps 726 mmHg 98%
    01:00 +22°C° 0.8 mm 0 mps 726 mmHg 98%
    02:00 +22°C° 0.8 mm 0 mps 725 mmHg 98%
    03:00 +22°C° 0.8 mm 0 mps 725 mmHg 98%
    04:00 +22°C° 0.5 mm 0 mps 725 mmHg 98%
    05:00 +22°C° 0.5 mm 0 mps 725 mmHg 98%
    06:00 +22°C° 0.5 mm 0 mps 725 mmHg 98%
    07:00 +25°C° 0.3 mm 1 mps 726 mmHg 95%
    08:00 +26°C° 0.3 mm 1 mps 727 mmHg 91%
    09:00 +27°C° 0.3 mm 1 mps 727 mmHg 88%
    10:00 +28°C° 1 mm 1 mps 727 mmHg 88%
    11:00 +28°C° 1 mm 1 mps 726 mmHg 87%
    12:00 +29°C° 1 mm 1 mps 726 mmHg 87%
    13:00 +28°C° 2.1 mm 1 mps 725 mmHg 89%
    14:00 +27°C° 2.1 mm 1 mps 725 mmHg 91%
    15:00 +27°C° 2.1 mm 1 mps 724 mmHg 93%
    16:00 +26°C° 4.2 mm 1 mps 725 mmHg 95%
    17:00 +25°C° 4.2 mm 1 mps 725 mmHg 96%
    18:00 +24°C° 4.2 mm 1 mps 726 mmHg 97%
    19:00 +24°C° 3.5 mm 1 mps 726 mmHg 97%
    20:00 +24°C° 3.5 mm 1 mps 727 mmHg 97%
    21:00 +23°C° 3.5 mm 1 mps 728 mmHg 98%
    22:00 +23°C° 1.8 mm 1 mps 727 mmHg 98%
    23:00 +23°C° 1.8 mm 1 mps 727 mmHg 98%

    26 October, Thursday

    Time Temperature Precipitation Wind Pressure Humidity
    00:00 +22°C° 1.8 mm 1 mps 727 mmHg 98%
    01:00 +22°C° 0.2 mm 1 mps 726 mmHg 97%
    02:00 +22°C° 0.2 mm 1 mps 726 mmHg 97%
    03:00 +22°C° 0.2 mm 1 mps 725 mmHg 97%
    04:00 +22°C° 0.1 mm 1 mps 726 mmHg 97%
    05:00 +21°C° 0.1 mm 1 mps 726 mmHg 97%
    06:00 +21°C° 0.1 mm 1 mps 726 mmHg 97%
    07:00 +23°C° 0.2 mm 1 mps 727 mmHg 92%
    08:00 +24°C° 0.2 mm 1 mps 728 mmHg 86%
    09:00 +25°C° 0.2 mm 1 mps 728 mmHg 81%
    10:00 +26°C° 0.1 mm 2 mps 728 mmHg 74%
    11:00 +27°C° 0.1 mm 2 mps 727 mmHg 68%
    12:00 +29°C° 0.1 mm 2 mps 726 mmHg 61%
    13:00 +29°C° 0 mm 2 mps 726 mmHg 61%
    14:00 +29°C° 0 mm 2 mps 725 mmHg 62%
    15:00 +29°C° 0 mm 3 mps 725 mmHg 62%
    16:00 +27°C° 0 mm 2 mps 725 mmHg 68%
    17:00 +26°C° 0 mm 2 mps 726 mmHg 73%
    18:00 +24°C° 0 mm 1 mps 726 mmHg 78%
    19:00 +23°C° 0 mm 1 mps 727 mmHg 80%
    20:00 +23°C° 0 mm 1 mps 727 mmHg 81%
    21:00 +22°C° 0 mm 1 mps 727 mmHg 83%
    22:00 +22°C° 0 mm 1 mps 727 mmHg 83%
    23:00 +21°C° 0 mm 1 mps 726 mmHg 84%

    27 October, Friday

    Time Temperature Precipitation Wind Pressure Humidity
    00:00 +21°C° 0 mm 1 mps 726 mmHg 85%
    01:00 +21°C° 0 mm 1 mps 726 mmHg 86%
    02:00 +21°C° 0 mm 1 mps 725 mmHg 86%
    03:00 +20°C° 0 mm 1 mps 725 mmHg 87%
    04:00 +20°C° 0.1 mm 1 mps 725 mmHg 87%
    05:00 +20°C° 0.1 mm 1 mps 726 mmHg 87%
    06:00 +20°C° 0.1 mm 1 mps 726 mmHg 88%
    07:00 +21°C° 0.2 mm 1 mps 727 mmHg 85%
    08:00 +22°C° 0.2 mm 1 mps 727 mmHg 82%
    09:00 +23°C° 0.2 mm 1 mps 727 mmHg 79%
    10:00 +24°C° 0.2 mm 1 mps 727 mmHg 77%
    11:00 +25°C° 0.2 mm 1 mps 727 mmHg 75%
    12:00 +26°C° 0.2 mm 1 mps 726 mmHg 73%
    13:00 +26°C° 0.2 mm 1 mps 726 mmHg 74%
    14:00 +26°C° 0.2 mm 1 mps 725 mmHg 76%
    15:00 +26°C° 0.2 mm 1 mps 725 mmHg 78%
    16:00 +25°C° 0.4 mm 1 mps 726 mmHg 83%
    17:00 +24°C° 0.4 mm 1 mps 726 mmHg 88%
    18:00 +23°C° 0.4 mm 1 mps 727 mmHg 93%
    19:00 +23°C° 0.3 mm 1 mps 727 mmHg 93%
    20:00 +23°C° 0.3 mm 1 mps 727 mmHg 93%
    21:00 +23°C° 0.3 mm 1 mps 728 mmHg 94%
    22:00 +23°C° 0.1 mm 1 mps 727 mmHg 94%
    23:00 +22°C° 0.1 mm 1 mps 727 mmHg 95%

    28 October, Saturday

    Time Temperature Precipitation Wind Pressure Humidity
    00:00 +22°C° 0.1 mm 1 mps 727 mmHg 95%
    01:00 +22°C° 0 mm 1 mps 726 mmHg 95%
    02:00 +22°C° 0 mm 1 mps 726 mmHg 96%
    03:00 +21°C° 0 mm 1 mps 726 mmHg 96%
    04:00 +22°C° 0 mm 1 mps 727 mmHg 96%
    05:00 +22°C° 0 mm 1 mps 727 mmHg 95%
    06:00 +22°C° 0 mm 1 mps 728 mmHg 95%
    07:00 +23°C° 0.1 mm 1 mps 728 mmHg 90%
    08:00 +25°C° 0.1 mm 1 mps 729 mmHg 85%
    09:00 +26°C° 0.1 mm 1 mps 729 mmHg 80%
    10:00 +27°C° 0.1 mm 1 mps 729 mmHg 77%
    11:00 +28°C° 0.1 mm 1 mps 728 mmHg 75%
    12:00 +29°C° 0.1 mm 1 mps 728 mmHg 72%
    13:00 +28°C° 0.7 mm 1 mps 727 mmHg 77%
    14:00 +28°C° 0.7 mm 1 mps 727 mmHg 81%
    15:00 +27°C° 0.7 mm 1 mps 726 mmHg 85%
    16:00 +26°C° 0.8 mm 1 mps 727 mmHg 89%
    17:00 +25°C° 0.8 mm 1 mps 727 mmHg 93%
    18:00 +23°C° 0.8 mm 1 mps 727 mmHg 96%
    19:00 +23°C° 0.9 mm 1 mps 728 mmHg 97%
    20:00 +23°C° 0.9 mm 1 mps 728 mmHg 97%
    21:00 +23°C° 0.9 mm 1 mps 729 mmHg 98%
    22:00 +23°C° 0.3 mm 1 mps 728 mmHg 98%
    23:00 +22°C° 0.3 mm 1 mps 728 mmHg 98%

    29 October, Sunday

    Time Temperature Precipitation Wind Pressure Humidity
    00:00 +22°C° 0.3 mm 1 mps 728 mmHg 98%
    01:00 +22°C° 0.2 mm 1 mps 728 mmHg 98%
    02:00 +22°C° 0.2 mm 1 mps 727 mmHg 98%
    03:00 +22°C° 0.2 mm 1 mps 727 mmHg 98%
    04:00 +22°C° 0.2 mm 1 mps 727 mmHg 97%
    05:00 +21°C° 0.2 mm 1 mps 728 mmHg 97%
    06:00 +21°C° 0.2 mm 1 mps 728 mmHg 97%
    07:00 +22°C° 0.3 mm 1 mps 728 mmHg 96%
    08:00 +23°C° 0.3 mm 1 mps 728 mmHg 94%
    09:00 +23°C° 0.3 mm 1 mps 729 mmHg 93%
    10:00 +25°C° 0.1 mm 1 mps 728 mmHg 85%
    11:00 +27°C° 0.1 mm 1 mps 728 mmHg 77%
    12:00 +28°C° 0.1 mm 1 mps 727 mmHg 70%
    13:00 +28°C° 0.2 mm 1 mps 727 mmHg 73%
    14:00 +27°C° 0.2 mm 1 mps 727 mmHg 77%
    15:00 +27°C° 0.2 mm 1 mps 726 mmHg 80%
    16:00 +26°C° 0.3 mm 1 mps 726 mmHg 84%
    17:00 +25°C° 0.3 mm 1 mps 727 mmHg 89%
    18:00 +22°C° 0.3 mm 0 mps 727 mmHg 93%
    19:00 +24°C° 0.3 mm 1 mps 728 mmHg 94%
    20:00 +23°C° 0.3 mm 1 mps 728 mmHg 95%
    21:00 +23°C° 0.3 mm 1 mps 728 mmHg 97%
    22:00 +23°C° 0.3 mm 1 mps 728 mmHg 97%
    23:00 +23°C° 0.3 mm 1 mps 728 mmHg 97%
    Show more